Location: Brantford
(43.1330°N, 80.2670°W)
Time: 01:04:50
(UTC-05:00)

Courier 1B - All Passes

Search period start: 20 November 2019 00:00
Search period end: 30 November 2019 00:00
Orbit: 963 x 1209 km, 28.3° (Epoch: 18 November)

Date Brightness Start Highest point End Pass type
(mag) Time Alt. Az. Time Alt. Az. Time Alt. Az.
20 Nov - 05:39:48 10° SSW 05:44:04 17° SSE 05:48:13 10° SE visible
20 Nov - 07:32:06 10° SW 07:37:06 22° S 07:41:56 10° SE daylight
20 Nov - 09:26:03 10° SW 09:30:03 17° SSW 09:34:00 10° SSE daylight
21 Nov - 04:46:46 10° SSW 04:50:33 15° SSE 04:54:14 10° SE visible
21 Nov - 06:38:30 10° SW 06:43:35 22° S 06:48:29 10° SE visible
21 Nov - 08:32:03 10° SW 08:36:35 19° S 08:41:01 10° SSE daylight
22 Nov - 03:54:08 10° S 03:57:02 13° SSE 03:59:51 10° SE visible
22 Nov - 05:44:58 10° SW 05:50:02 21° S 05:54:56 10° SE visible
22 Nov - 07:38:11 10° SW 07:43:06 21° S 07:47:52 10° SE daylight
22 Nov - 09:33:26 10° SW 09:35:58 12° SSW 09:38:28 10° S daylight
23 Nov - 03:03:05 10° SSE 03:03:29 10° SSE 03:03:54 10° SSE visible
23 Nov - 04:51:32 10° SSW 04:56:29 20° S 05:01:16 10° SE visible
23 Nov - 06:44:22 10° SW 06:49:35 23° S 06:54:36 10° SE visible
23 Nov - 08:38:50 10° SW 08:42:31 15° SSW 08:46:09 10° SSE daylight
24 Nov - 03:58:14 10° SSW 04:02:55 18° SSE 04:07:27 10° SE visible
24 Nov - 05:50:37 10° SW 05:56:02 23° S 06:01:13 10° SE visible
24 Nov - 07:44:36 10° SW 07:49:03 18° SSW 07:53:23 10° SSE daylight
25 Nov - 03:05:10 10° SSW 03:09:21 16° SSE 03:13:25 10° SE visible
25 Nov - 04:56:56 10° SW 05:02:28 23° S 05:07:44 10° SE visible
25 Nov - 06:50:33 10° WSW 06:55:33 21° S 07:00:22 10° SE visible
25 Nov - 08:47:10 10° SW 08:48:23 10° SSW 08:49:35 10° SSW daylight
26 Nov - 02:12:29 10° S 02:15:46 13° SSE 02:19:00 10° SE visible
26 Nov - 04:03:21 10° SW 04:08:52 22° S 04:14:08 10° SE visible
26 Nov - 05:56:36 10° SW 06:02:01 23° S 06:07:12 10° SE visible
26 Nov - 07:51:40 10° SW 07:54:57 14° SSW 07:58:09 10° S daylight
27 Nov - 01:20:59 10° SSE 01:22:11 10° SSE 01:23:24 10° SE night (unlit)
27 Nov - 03:09:53 10° SSW 03:15:15 21° SSE 03:20:25 10° ESE visible
27 Nov - 05:02:44 10° SW 05:08:26 24° S 05:13:52 10° SE visible
27 Nov - 06:57:09 10° SW 07:01:28 17° SSW 07:05:39 10° SSE visible
28 Nov - 02:16:36 10° SSW 02:21:38 19° SSE 02:26:31 10° ESE visible
28 Nov - 04:08:57 10° SW 04:14:49 25° S 04:20:26 10° SE visible
28 Nov - 06:02:55 10° WSW 06:07:57 20° SSW 06:12:47 10° SSE visible
29 Nov - 01:23:34 10° SSW 01:28:00 16° SSE 01:32:21 10° SE night (unlit)
29 Nov - 03:15:16 10° SW 03:21:11 24° S 03:26:52 10° SE visible
29 Nov - 05:08:51 10° WSW 05:14:23 23° S 05:19:41 10° SE visible
29 Nov - 07:04:41 10° SW 07:07:17 12° SSW 07:09:52 10° S daylight
